sat.trackr.live / text

‹ back to catalog

STARLINK-32488

NORAD 62125 · 2024-222M

PAYLOAD ACTIVE UNKNOWN

§ Identity

Operator
Country
US
Launch date
2024-11-27
Launch site
AFETR
Launch vehicle
Mass (kg)
RCS (m²)

Purposes: comms

External: N2YO · Heavens-Above · Gunter

§ Orbital elements

Epoch: 2026-09-20T23:46:15.864096Z

Period
94.27 min
Inclination
43.0021°
Eccentricity
0.0003101
Mean motion
15.27593720 rev/d
Perigee alt
480.9 km
Apogee alt
485.1 km
Semi-major
6,861.1 km
B*
4.6199e-4
RAAN
113.5732°
Arg perigee
44.9119°
Mean anomaly
315.1983°
Rev number
10,251

§ Raw data

STARLINK-324881 62125U 24222M   26263.99046139  .00012478  00000+0  46199-3 0  99912 62125  43.0021 113.5732 0003101  44.9119 315.1983 15.27593720102513

JSON: /api/v1/satellites/62125 · /tle

For live sub-satellite position, see the globe view (requires WebGL).

§ Visibility from observer

Set your observer location to see the next 7 days of passes ≥ 10°. The values pass through the URL so the page stays shareable.

No JS? Fill the form by hand. The geolocation button needs JavaScript.